Miscellaneous Local Product
Issued by NWS North Platte, NE

Home | Current Version | Previous Version | Text Only | Print | Product List | Glossary On
Versions: 1 2 3 4 5 6 7 8 9 10 11 12 13 14 15 16 17 18 19 20 21 22 23 24 25 26 27 28 29 30 31 32 33 34 35 36 37 38 39 40 41 42 43 44 45 46 47 48 49 50
000
AXUS43 KLBF 251010
MISLBF


WESTERN AND NORTH CENTRAL NEBRASKA HOURLY WEATHER ROUNDUP
NATIONAL WEATHER SERVICE NORTH PLATTE NE
500 AM CDT SAT MAR 25 2017

NOTE: "FAIR" INDICATES FEW OR NO CLOUDS BELOW 12,000 FEET WITH NO
SIGNIFICANT WEATHER AND/OR OBSTRUCTIONS TO VISIBILITY.

NOTE: STATIONS NOT REPORTING VARIABLES SUCH AS SKY/WEATHER OR
PRESSURE ARE PROVIDED BY RAWS AND APRS NETWORKS AND ARE NOT UNDER
NATIONAL WEATHER SERVICE QUALITY CONTROL.

...OBSERVATIONS IN AND NEAR THE EASTERN PANHANDLE OF NEBRASKA...

CITY           SKY/WX    TMP DP  RH WIND       PRES   REMARKS
PINE RIDGE     CLOUDY    39  30  70 CALM      30.02F
CHADRON        CLOUDY    35  28  75 S3        30.00F
ALLIANCE       CLOUDY    21  18  88 CALM      30.03F
SIDNEY         CLOUDY    23  21  92 W3        30.07S
CRESCENT LAKE    N/A     50  28  43 CALM        N/A
$$

...OBSERVATIONS IN NORTHERN NEBRASKA AND FAR SOUTHERN SOUTH DAKOTA...

CITY           SKY/WX    TMP DP  RH WIND       PRES   REMARKS
WINNER         FOG       33  32  96 E12       30.08F VSB 1/4 WCI  24
VALENTINE      CLOUDY    24  20  84 CALM      30.06F
THEDFORD       CLOUDY    29  26  88 CALM      30.07S
AINSWORTH      SNOW      29  29 100 NE8       30.07S VSB 1/4 WCI  22
O`NEILL        CLOUDY    35  35  99 N10       30.07S FOG     WCI  27
ORD            CLOUDY    36  34  92 N14       30.04S FOG     WCI  27
BROKEN BOW     CLOUDY    34  32  92 N13       30.03S WCI  25
VALENTINE NWR    N/A     50  27  41 CALM        N/A
HALSEY           N/A     29  28  94 NW3         N/A
BUTTE            N/A     33  30  90 N5          N/A  WCI  28
CHAMBERS         N/A     35  34  98 N3          N/A
EWING            N/A     35  34  97 N3          N/A
$$

...OBSERVATIONS IN SOUTHWEST NEBRASKA AND FAR NORTHEAST COLORADO...

CITY           SKY/WX    TMP DP  RH WIND       PRES   REMARKS
WRAY           FAIR      32  32 100 W6        30.09S WCI  26
HOLYOKE        FAIR      34  32  93 W8        30.08S WCI  27
IMPERIAL       CLEAR     32  27  81 NW8       30.05F WCI  25
OGALLALA       CLOUDY    31  29  92 W8        30.06S WCI  23
NORTH PLATTE   CLEAR     30  26  85 W5        30.06S WCI  25
MCCOOK         CLEAR     34  33  96 NW10      30.04S WCI  26
LEXINGTON      PTCLDY    35  33  92 N9        30.03S WCI  27
STAPLETON        N/A     28  26  92 CALM        N/A
GOTHENBURG       N/A     35  31  84 NW3         N/A
CALLAWAY         N/A     33  30  90 N9          N/A  WCI  25
$$

...OBSERVATIONS IN CENTRAL LINCOLN COUNTY AREA...

CITY           SKY/WX    TMP DP  RH WIND       PRES   REMARKS
N.P. AIRPORT   CLEAR     30  26  85 W5        30.06S WCI  25
N.P. DOWNTOWN    N/A     33  29  85 CALM        N/A
N.P. SOUTHEAST   N/A     32  28  85 CALM        N/A
N.P. HILLCREST   N/A     30  27  88 CALM        N/A
$$

...SOME OBSERVATIONS FROM AROUND THE REGION...

CITY           SKY/WX    TMP DP  RH WIND       PRES   REMARKS
DENVER         CLOUDY    33  27  78 S8        30.05F WCI  26
LIMON          CLOUDY    28  26  92 N6        30.08F WCI  22
ASPEN          CLOUDY    33  22  63 SE8       30.18F WCI  26
LARAMIE        CLOUDY    30  21  69 S6        30.06F WCI  24
GILLETTE       CLOUDY    43  30  60 S17       29.87R
CHEYENNE       CLOUDY    28  24  85 SW7       30.05F WCI  21
SCOTTSBLUFF    CLOUDY    31  25  78 E8        30.03F WCI  23
GRAND ISLAND   CLOUDY    37  37 100 N17G25    30.03R FOG     WCI  27
OMAHA          LGT RAIN  41  37  86 N17G25    29.93S FOG
SIOUX FALLS    CLOUDY    35  34  96 NE14      30.10S FOG     WCI  26
PIERRE         CLOUDY    28  26  92 SE8       30.06F FOG     WCI  20
RAPID CITY     CLOUDY    36  28  73 S14       29.97F WCI  27
BISMARCK       CLOUDY    31  30  96 SE12      30.07F FOG     WCI  22
KANSAS CITY    CLOUDY    55  54  96 E8        29.76R
HILL CITY      CLOUDY    43  40  89 N10       30.01F
WICHITA        LGT RAIN  43  42  97 N24G33    29.87R
DODGE CITY     CLOUDY    42  40  92 NW16G23   29.98F
OKLAHOMA CITY  CLOUDY    48  44  86 NW23G33   29.90R
DALLAS         PTCLDY    58  45  62 W16       29.91R
AMARILLO       CLEAR     38  34  85 NW22      30.06F WCI  27
$$




USA.gov is the U.S. government's official web portal to all federal, state and local government web resources and services.